Location: *
(55.5817°S, 142.4781°W)
Time: 06:57:40
(UTC+00:00)

SL-19 R/B - Pass Details

Date: 29 April 2025
Orbit: 795 x 1008 km, 99.6° (Epoch: 23 May)

Event Time Altitude Azimuth Distance (km) Brightness Sun altitude
Rises 15:21:37 0° 7° (N) 3,326 7.5 -12.9°
Reaches altitude 10° 15:23:59 10° 2° (N) 2,391 6.7 -12.5°
Maximum altitude 15:29:09 58° 283° (WNW) 946 4.2 -11.8°
Drops below altitude 10° 15:34:24 10° 204° (SSW) 2,422 6.3 -11.1°
Sets 15:36:49 0° 199° (SSW) 3,374 7.0 -10.7°
